EW1336 Weather Reports


Display with metric or nautical units.
time (UTC)temp
F
wind
direction
speed
MPH
gust
MPH
rain 1hr
in
rain 24hr
in
rain mn
in
humidity
%
barometer
mb
20260507184501 60 266 0.0 3.0 0.00 0.00 0.00 46 1014.3
20260507183059 59 167 0.0 2.0 0.00 0.00 0.00 49 1014.3
20260507181604 58 264 0.0 1.0 0.00 0.00 0.00 52 1014.4
20260507180056 58 265 0.0 3.0 0.00 0.00 0.00 53 1014.5
20260507174558 58 269 0.0 2.0 0.00 0.00 0.00 57 1014.5
20260507173054 57 226 0.0 1.0 0.00 0.00 0.00 61 1014.4
20260507171556 55 273 0.0 1.0 0.00 0.00 0.00 68 1014.4
20260507170045 53 295 0.0 1.0 0.00 0.00 0.00 74 1014.5
20260507164537 52 252 0.0 3.0 0.00 0.00 0.00 77 1014.5
20260507163034 52 200 0.0 1.0 0.00 0.00 0.00 80 1014.7
20260507161532 51 233 0.0 0.0 0.00 0.00 0.00 82 1014.8
20260507160027 49 188 0.0 1.0 0.00 0.00 0.00 83 1015.0
20260507154528 48 56 0.0 1.0 0.00 0.00 0.00 84 1015.1
20260507153022 47 51 0.0 0.0 0.00 0.00 0.00 85 1015.1
20260507151516 45 36 0.0 0.0 0.00 0.00 0.00 87 1015.0
20260507150014 44 36 0.0 0.0 0.00 0.00 0.00 88 1015.0
20260507144515 43 36 0.0 0.0 0.00 0.00 0.00 90 1015.1
20260507143011 42 36 0.0 0.0 0.00 0.00 0.00 88 1015.1
20260507141510 42 36 0.0 0.0 0.00 0.00 0.00 87 1015.0
20260507140010 42 349 0.0 0.0 0.00 0.00 0.00 86 1014.9
20260507134510 42 27 0.0 0.0 0.00 0.00 0.00 87 1014.9
20260507133009 41 23 0.0 1.0 0.00 0.00 0.00 84 1014.8
20260507131520 41 25 0.0 0.0 0.00 0.00 0.00 86 1014.7
20260507130007 41 22 0.0 0.0 0.00 0.00 0.00 87 1014.7
20260507124506 41 15 0.0 0.0 0.00 0.00 0.00 87 1014.8
20260507123005 41 360 0.0 0.0 0.00 0.00 0.00 85 1014.7
20260507121503 41 4 0.0 0.0 0.00 0.00 0.00 84 1014.9
20260507120005 41 350 0.0 0.0 0.00 0.00 0.00 84 1015.0
20260507114502 41 338 0.0 0.0 0.00 0.00 0.00 85 1015.0
20260507113101 41 8 0.0 0.0 0.00 0.00 0.00 85 1015.0
20260507111558 41 174 0.0 1.0 0.00 0.00 0.00 85 1015.1
20260507110058 41 219 0.0 0.0 0.00 0.00 0.00 85 1015.2
20260507104557 41 249 0.0 0.0 0.00 0.00 0.00 85 1015.3
20260507103057 41 132 0.0 0.0 0.00 0.00 0.00 84 1015.4
20260507101559 41 218 0.0 0.0 0.00 0.00 0.00 84 1015.6
20260507094550 41 222 0.0 0.0 0.00 0.00 0.00 83 1015.6
20260507093050 41 198 0.0 0.0 0.00 0.00 0.00 82 1015.7
20260507091547 41 209 0.0 0.0 0.00 0.00 0.00 83 1015.9
20260507090048 42 224 0.0 0.0 0.00 0.00 0.00 82 1016.0
20260507084548 42 236 0.0 0.0 0.00 0.00 0.00 81 1016.1
20260507083057 42 238 0.0 0.0 0.00 0.00 0.00 79 1016.2
20260507081546 42 240 0.0 0.0 0.00 0.00 0.00 80 1016.3
20260507080037 43 243 0.0 0.0 0.00 0.00 0.00 80 1016.3
20260507074536 43 187 0.0 0.0 0.00 0.00 0.00 80 1016.2
20260507073039 44 207 0.0 0.0 0.00 0.00 0.00 79 1016.2
20260507071535 44 208 0.0 0.0 0.00 0.00 0.00 78 1016.4
20260507070037 45 232 0.0 0.0 0.00 0.00 0.00 78 1016.4
20260507064535 45 124 0.0 1.0 0.00 0.00 0.00 77 1016.3
20260507063031 45 153 0.0 0.0 0.00 0.00 0.00 76 1016.3
20260507061528 45 200 0.0 0.0 0.00 0.00 0.00 76 1016.3
20260507060032 45 207 0.0 1.0 0.00 0.00 0.00 75 1016.3
20260507054531 46 208 0.0 0.0 0.00 0.00 0.00 74 1016.2
20260507053026 46 210 0.0 0.0 0.00 0.00 0.00 74 1016.3
20260507051525 47 211 0.0 0.0 0.00 0.00 0.00 73 1016.3
20260507050033 46 207 0.0 0.0 0.00 0.00 0.00 74 1016.3
20260507044533 46 211 0.0 0.0 0.00 0.00 0.00 72 1016.1
20260507043023 47 197 0.0 1.0 0.00 0.00 0.00 70 1015.9
20260507041530 47 224 0.0 0.0 0.00 0.00 0.00 70 1015.9
20260507040022 47 224 0.0 0.0 0.00 0.00 0.00 66 1015.7
20260507034522 48 173 0.0 0.0 0.00 0.00 0.00 65 1015.6
20260507033025 49 142 0.0 0.0 0.00 0.00 0.00 63 1015.5
20260507031526 50 124 0.0 1.0 0.00 0.00 0.00 62 1015.4
20260507030020 51 241 0.0 0.0 0.00 0.00 0.00 61 1015.2
20260507024519 52 250 0.0 0.0 0.00 0.00 0.00 59 1015.1
20260507023019 54 250 0.0 0.0 0.00 0.00 0.00 56 1015.0
20260507021518 55 250 0.0 0.0 0.00 0.00 0.00 55 1014.8
20260507020020 57 271 0.0 0.0 0.00 0.00 0.00 50 1014.9
20260507014522 58 273 0.0 0.0 0.00 0.00 0.00 50 1014.9
20260507013023 59 273 0.0 0.0 0.00 0.00 0.00 50 1014.9
20260507011519 60 271 0.0 1.0 0.00 0.00 0.00 44 1015.0
20260507010015 60 210 0.0 1.0 0.00 0.00 0.00 38 1015.1
20260507004530 61 211 0.0 1.0 0.00 0.00 0.00 38 1015.2
20260507003014 62 200 0.0 2.0 0.00 0.00 0.00 39 1015.1
20260507001513 63 269 0.0 1.0 0.00 0.00 0.00 37 1015.2
20260507000014 64 275 0.0 2.0 0.00 0.00 0.00 36 1015.3
20260506234510 65 210 0.0 1.0 0.00 0.00 0.00 35 1015.3
20260506233009 65 277 0.0 2.0 0.00 0.00 0.00 37 1015.3
20260506231517 65 336 0.0 2.0 0.00 0.00 0.00 35 1015.4
20260506230005 64 229 0.0 2.0 0.00 0.00 0.00 37 1015.6
20260506224504 64 221 0.0 3.0 0.00 0.00 0.00 37 1015.9
20260506223004 64 283 0.0 3.0 0.00 0.00 0.00 38 1015.9
20260506221501 64 278 0.0 3.0 0.00 0.00 0.00 37 1016.2
20260506220100 64 250 0.0 3.0 0.00 0.00 0.00 34 1016.4
20260506214559 64 274 0.0 2.0 0.00 0.00 0.00 38 1016.6
20260506213127 63 253 0.0 2.0 0.00 0.00 0.00 40 1016.6
20260506211608 63 274 0.0 4.0 0.00 0.00 0.00 44 1016.7
20260506210100 64 226 0.0 3.0 0.00 0.00 0.00 41 1016.9
20260506204556 63 260 0.0 2.0 0.00 0.05 0.00 47 1016.9
20260506203049 62 219 0.0 2.0 0.00 0.05 0.00 47 1017.0
20260506201557 62 219 0.0 3.0 0.00 0.05 0.00 55 1017.1
20260506200043 61 270 0.0 1.0 0.00 0.05 0.00 54 1017.4
20260506194547 58 235 0.0 1.0 0.00 0.19 0.00 60 1017.5
20260506193040 59 161 0.0 1.0 0.00 0.19 0.00 59 1017.5
20260506191544 59 278 0.0 2.0 0.00 0.19 0.00 58 1017.5
20260506190136 58 20 0.0 2.0 0.00 0.19 0.00 61 1017.6